Location: ???????
(55.3754°N, 39.3545°E)
Time: 20:40:22
(UTC+00:00)

SWAS - Pass Details

Date: 14 April 2026
Orbit: 533 x 544 km, 69.9° (Epoch: 11 May)

Event Time Altitude Azimuth Distance (km) Brightness Sun altitude
Rises 19:28:38 0° 324° (NW) 2,714 9.4 -20.8°
Reaches altitude 10° 19:30:50 10° 326° (NNW) 1,819 8.1 -20.9°
Maximum altitude 19:34:54 74° 52° (NE) 573 4.3 -21.2°
Enters shadow 19:35:20 65° 103° (ESE) 602 4.2 -21.2°
